Location: Auckland
(36.8670°S, 174.7670°E)
Time: 14:46:11
(UTC+13:00)

Cosmos 2263 Rocket - Pass Details

Date: 24 January 2019
Orbit: 824 x 848 km, 71.0° (Epoch: 13 October)

Event Time Altitude Azimuth Distance (km) Brightness Sun altitude
Rises 23:28:51 0° 219° (SW) 3,410 6.7 -26.7°
Reaches altitude 10° 23:31:53 10° 234° (SW) 2,472 5.5 -27.1°
Maximum altitude 23:35:55 20° 280° (W) 1,844 4.1 -27.5°
Enters shadow 23:37:49 17° 306° (NW) 1,996 4.1 -27.7°
